�N����,����,�~����,�C��,���x,�C��,����,���ϕ���,�ő�u�ԕ���,�ő厞����,���˗�,�I�_���x,�n�����x,�ő啗���N��,DTYPE
"18/11/30","00:10",0.0,4.8,96.5,1018.2,270.0,1.3,1.7,289.5,0.00,4.3,10.7,"00:05:30",1
"18/11/30","00:20",0.0,5.4,96.0,1017.8,309.1,1.5,2.5,327.6,0.00,4.9,10.6,"00:11:12",1
"18/11/30","00:30",0.0,5.1,95.1,1017.8,317.4,1.8,3.3,324.1,0.00,4.4,10.5,"00:22:08",1
"18/11/30","00:40",0.0,4.9,95.9,1018.0,306.6,1.7,2.5,320.3,0.00,4.3,10.5,"00:31:12",1
"18/11/30","00:50",0.0,4.7,95.6,1018.0,306.5,1.3,2.0,304.2,0.00,4.1,10.6,"00:42:40",1
"18/11/30","01:00",0.0,4.5,96.4,1018.0,294.7,1.2,2.0,316.4,0.00,4.0,10.5,"00:55:52",1
"18/11/30","01:10",0.0,4.5,96.3,1017.8,310.6,1.0,2.4,318.5,0.00,4.0,10.4,"01:08:18",1
"18/11/30","01:20",0.0,4.3,96.7,1018.0,297.2,1.7,2.6,305.5,0.00,3.9,10.3,"01:12:32",1
"18/11/30","01:30",0.0,4.2,96.5,1017.8,298.2,1.3,1.8,321.3,0.00,3.7,10.4,"01:26:24",1
"18/11/30","01:40",0.0,4.0,96.8,1017.8,294.2,1.2,2.1,312.3,0.00,3.6,10.4,"01:30:40",1
"18/11/30","01:50",0.0,4.0,97.1,1017.8,296.8,1.1,2.7,316.8,0.00,3.6,10.2,"01:49:36",1
"18/11/30","02:00",0.0,4.0,98.0,1017.8,315.2,2.3,3.7,319.7,0.00,3.8,10.2,"01:51:52",1
"18/11/30","02:10",0.0,4.1,95.7,1017.8,310.0,1.3,2.2,315.2,0.00,3.5,10.2,"02:01:46",1
"18/11/30","02:20",0.0,4.0,98.0,1017.5,289.1,1.5,3.2,316.1,0.00,3.8,10.0,"02:15:04",1
"18/11/30","02:30",0.0,4.0,97.0,1017.5,307.9,1.8,2.8,309.0,0.00,3.6,10.1,"02:27:12",1
"18/11/30","02:40",0.0,3.5,97.0,1018.0,299.9,1.7,3.4,324.9,0.00,3.1,9.7,"02:32:24",1
"18/11/30","02:50",0.0,3.6,98.3,1018.0,301.4,1.6,2.2,318.0,0.00,3.4,10.0,"02:47:04",1
"18/11/30","03:00",0.0,3.7,97.6,1018.0,286.2,1.5,1.8,278.5,0.00,3.4,10.0,"02:55:44",1
"18/11/30","03:10",0.0,3.4,97.6,1018.2,299.0,1.5,2.1,307.6,0.00,3.1,9.7,"03:02:16",1
"18/11/30","03:20",0.0,3.4,98.3,1017.8,286.8,1.3,1.6,268.0,0.00,3.2,10.0,"03:17:12",1
"18/11/30","03:30",0.0,3.7,97.8,1018.0,293.0,1.5,2.1,307.7,0.00,3.4,9.6,"03:24:32",1
"18/11/30","03:40",0.0,3.8,98.0,1018.0,317.5,2.1,2.9,321.7,0.00,3.6,9.7,"03:35:20",1
"18/11/30","03:50",0.0,3.9,97.6,1018.0,290.2,1.0,2.2,311.8,0.00,3.6,9.5,"03:49:44",1
"18/11/30","04:00",0.0,3.9,98.4,1018.2,315.1,1.8,2.5,322.8,0.00,3.7,9.5,"03:54:40",1
"18/11/30","04:10",0.0,3.9,97.5,1017.5,307.3,1.7,2.8,318.5,0.00,3.6,9.8,"04:02:08",1
"18/11/30","04:20",0.0,4.0,98.9,1017.8,319.9,1.8,2.6,319.3,0.00,3.9,9.5,"04:15:28",1
"18/11/30","04:30",0.0,4.0,98.2,1017.5,305.4,1.8,2.4,307.9,0.00,3.8,9.6,"04:26:32",1
"18/11/30","04:40",0.0,3.5,97.5,1017.8,298.7,1.1,1.8,298.3,0.00,3.2,9.4,"04:35:38",1
"18/11/30","04:50",0.0,3.3,99.0,1017.8,293.4,1.7,2.7,317.4,0.00,3.2,9.6,"04:49:22",1
"18/11/30","05:00",0.0,3.6,98.3,1017.8,297.9,1.0,2.2,315.0,0.00,3.4,9.4,"04:51:20",1
"18/11/30","05:10",0.0,3.6,97.9,1018.0,317.4,2.5,3.2,320.6,0.00,3.3,9.5,"05:04:24",1
"18/11/30","05:20",0.0,3.3,98.8,1018.2,294.7,2.0,2.6,313.7,0.00,3.2,9.3,"05:10:08",1
"18/11/30","05:30",0.0,3.7,98.7,1017.8,298.1,2.1,2.9,310.5,0.00,3.6,9.3,"05:20:02",1
"18/11/30","05:40",0.0,3.7,98.4,1018.0,301.0,1.8,2.6,305.6,0.00,3.5,9.4,"05:30:08",1
"18/11/30","05:50",0.0,3.7,98.5,1018.2,294.9,1.7,1.9,305.8,0.00,3.5,9.4,"05:40:16",1
"18/11/30","06:00",0.2,3.6,97.7,1018.2,291.0,1.7,2.5,311.4,0.00,3.3,9.2,"05:55:28",1
"18/11/30","06:10",0.0,3.7,99.0,1018.2,296.8,2.0,3.2,317.9,0.00,3.6,9.4,"06:05:44",1
"18/11/30","06:20",0.0,3.5,97.8,1018.2,313.0,2.1,3.1,316.7,0.00,3.2,9.4,"06:16:08",1
"18/11/30","06:30",0.0,3.2,99.2,1018.2,323.6,2.1,3.1,322.7,0.00,3.1,9.4,"06:21:04",1
"18/11/30","06:40",0.0,3.6,98.9,1018.7,308.8,2.0,2.7,315.3,0.00,3.5,9.3,"06:38:56",1
"18/11/30","06:50",0.0,4.0,98.8,1019.0,312.6,2.0,3.1,322.4,0.00,3.9,9.3,"06:48:24",1
"18/11/30","07:00",0.0,4.4,98.7,1019.0,312.4,1.8,2.4,315.3,0.00,4.3,9.2,"06:53:44",1
"18/11/30","07:10",0.0,4.7,98.7,1019.2,300.2,1.6,2.0,305.6,0.00,4.6,9.3,"07:03:06",1
"18/11/30","07:20",0.0,5.0,98.7,1018.7,290.1,1.1,1.7,310.3,0.00,4.9,9.5,"07:13:28",1
"18/11/30","07:30",0.0,5.3,98.6,1019.2,306.0,1.3,1.8,318.7,0.00,5.1,9.4,"07:27:14",1
"18/11/30","07:40",0.0,5.6,98.4,1019.2,276.6,1.5,1.9,267.5,0.00,5.4,9.4,"07:37:48",1
"18/11/30","07:50",0.0,5.9,98.3,1019.0,293.1,1.0,1.6,317.2,0.00,5.7,9.4,"07:45:46",1
"18/11/30","08:00",0.0,6.1,98.0,1019.4,270.4,0.7,1.2,266.5,0.00,5.8,9.7,"07:58:58",1
"18/11/30","08:10",0.0,6.3,97.9,1019.4,284.7,1.1,2.2,286.7,0.02,6.0,9.7,"08:05:56",1
"18/11/30","08:20",0.0,6.3,98.4,1019.7,307.6,1.7,2.7,326.1,0.01,6.1,9.6,"08:17:48",1
"18/11/30","08:30",0.0,6.5,97.7,1019.9,316.9,1.6,2.2,332.4,0.02,6.2,9.6,"08:21:16",1
"18/11/30","08:40",0.0,6.6,98.2,1020.4,307.9,1.7,2.0,333.8,0.02,6.4,10.0,"08:32:46",1
"18/11/30","08:50",0.0,6.8,97.2,1020.1,293.1,1.1,1.6,286.9,0.02,6.4,9.9,"08:42:04",1
"18/11/30","09:00",0.0,6.9,98.1,1019.9,295.6,1.6,2.5,309.9,0.03,6.7,10.0,"08:57:14",1
"18/11/30","09:10",0.0,7.2,96.9,1020.4,290.2,1.5,1.8,302.4,0.03,6.8,9.9,"09:06:50",1
"18/11/30","09:20",0.0,7.3,97.2,1020.6,273.1,1.3,1.7,249.8,0.04,6.9,10.2,"09:13:14",1
"18/11/30","09:30",0.0,7.5,96.7,1020.1,272.8,1.1,1.7,273.3,0.06,7.1,10.0,"09:23:56",1
"18/11/30","09:40",0.0,7.8,96.8,1020.4,290.9,0.8,1.3,267.1,0.09,7.4,10.0,"09:39:52",1
"18/11/30","09:50",0.0,8.1,95.1,1020.6,267.9,1.1,1.4,273.1,0.12,7.4,10.4,"09:40:40",1
"18/11/30","10:00",0.0,8.4,93.5,1021.1,242.2,0.7,1.8,242.0,0.09,7.5,10.5,"09:50:24",1
"18/11/30","10:10",0.0,8.6,92.1,1020.6,300.8,1.3,2.2,320.3,0.14,7.4,10.7,"10:09:44",1
"18/11/30","10:20",0.0,9.3,88.5,1020.6,303.3,1.7,2.7,306.9,0.30,7.5,10.8,"10:16:48",1
"18/11/30","10:30",0.0,9.3,85.1,1020.4,269.0,1.0,1.8,248.9,0.23,7.0,11.0,"10:21:36",1
"18/11/30","10:40",0.0,9.6,84.3,1020.1,278.4,0.8,1.4,303.0,0.12,7.1,11.0,"10:38:24",1
"18/11/30","10:50",0.0,9.8,83.2,1020.1,263.6,1.1,2.6,243.8,0.12,7.1,11.1,"10:45:20",1
"18/11/30","11:00",0.0,10.4,81.5,1020.4,287.8,1.0,1.6,317.8,0.21,7.4,11.5,"10:51:12",1
"18/11/30","11:10",0.0,10.8,79.4,1020.4,251.0,0.7,1.7,119.9,0.30,7.4,11.7,"11:04:24",1
"18/11/30","11:20",0.0,10.8,77.8,1020.4,245.6,1.0,1.7,241.6,0.20,7.1,11.7,"11:12:40",1
"18/11/30","11:30",0.0,11.8,75.8,1020.6,246.3,1.0,2.0,224.6,0.37,7.7,12.0,"11:27:36",1
"18/11/30","11:40",0.0,12.0,73.5,1020.4,230.3,1.1,2.2,228.1,0.37,7.5,12.2,"11:37:28",1
"18/11/30","11:50",0.0,12.5,71.7,1020.4,223.3,0.8,2.4,236.7,0.37,7.6,12.6,"11:49:04",1
"18/11/30","12:00",0.0,13.2,71.1,1020.4,202.5,1.0,1.9,101.2,0.37,8.1,12.5,"11:57:12",1
"18/11/30","12:10",0.0,12.7,71.4,1020.1,207.2,1.5,2.8,238.5,0.26,7.7,12.8,"12:08:48",1
"18/11/30","12:20",0.0,13.8,69.9,1019.9,200.2,0.8,2.2,151.7,0.37,8.4,12.9,"12:17:12",1
"18/11/30","12:30",0.0,13.8,69.0,1019.4,184.0,1.0,1.9,207.0,0.37,8.3,13.3,"12:20:32",1
"18/11/30","12:40",0.0,14.0,67.9,1019.4,219.5,1.1,2.2,197.5,0.36,8.2,13.6,"12:37:52",1
"18/11/30","12:50",0.0,14.2,67.0,1019.2,150.2,0.8,1.9,108.1,0.34,8.2,13.7,"12:42:16",1
"18/11/30","13:00",0.0,14.3,66.0,1019.0,199.7,1.0,2.2,199.9,0.35,8.1,13.8,"12:55:44",1
"18/11/30","13:10",0.0,14.2,65.0,1018.5,122.8,1.1,2.2,102.8,0.29,7.8,14.0,"13:03:36",1
"18/11/30","13:20",0.0,14.5,64.0,1018.0,185.8,1.0,2.7,132.7,0.30,7.8,14.0,"13:14:00",1
"18/11/30","13:30",0.0,14.9,64.4,1018.5,173.1,1.3,3.2,220.5,0.35,8.3,14.4,"13:28:40",1
"18/11/30","13:40",0.0,15.2,62.4,1018.2,183.1,1.1,2.9,104.7,0.36,8.1,14.4,"13:34:24",1
"18/11/30","13:50",0.0,15.3,61.1,1017.5,216.5,1.2,2.6,127.8,0.35,7.9,14.6,"13:41:04",1
"18/11/30","14:00",0.0,15.7,61.3,1017.5,206.4,1.0,2.8,149.0,0.32,8.3,14.8,"13:56:24",1
"18/11/30","14:10",0.0,14.9,61.7,1017.5,192.0,1.6,3.7,229.7,0.22,7.7,14.6,"14:08:48",1
"18/11/30","14:20",0.0,15.3,60.6,1017.3,194.0,1.3,2.6,200.2,0.23,7.8,14.8,"14:19:28",1
"18/11/30","14:30",0.0,15.6,60.6,1017.3,208.5,1.6,3.6,208.6,0.24,8.1,14.9,"14:22:32",1
"18/11/30","14:40",0.0,15.4,61.9,1017.3,149.8,1.2,2.6,110.5,0.20,8.2,14.9,"14:32:08",1
"18/11/30","14:50",0.0,15.7,60.0,1018.0,208.6,1.5,3.2,204.0,0.19,8.0,14.8,"14:40:56",1
"18/11/30","15:00",0.0,15.3,61.2,1017.8,207.0,1.2,4.0,144.6,0.13,7.9,14.9,"14:55:44",1
"18/11/30","15:10",0.0,15.0,60.4,1018.0,225.0,1.7,3.4,237.4,0.08,7.4,14.7,"15:02:58",1
"18/11/30","15:20",0.0,14.9,61.9,1017.8,221.2,1.1,2.9,225.8,0.09,7.7,14.8,"15:14:24",1
"18/11/30","15:30",0.0,15.0,62.2,1017.8,234.3,1.1,2.5,224.2,0.11,7.9,14.8,"15:27:34",1
"18/11/30","15:40",0.0,14.6,61.6,1017.8,212.9,1.1,3.3,235.7,0.04,7.4,14.7,"15:34:08",1
"18/11/30","15:50",0.0,14.6,62.7,1017.8,245.0,1.0,2.6,234.7,0.04,7.6,14.5,"15:40:16",1
"18/11/30","16:00",0.0,14.4,63.6,1017.3,224.4,0.8,2.1,232.6,0.03,7.6,14.6,"15:59:20",1
"18/11/30","16:10",0.0,14.2,63.9,1017.5,238.1,0.7,2.0,176.9,0.01,7.5,14.2,"16:00:16",1
"18/11/30","16:20",0.0,14.1,64.6,1017.8,263.1,0.3,1.0,269.7,0.00,7.6,14.3,"16:10:16",1
"18/11/30","16:30",0.0,14.2,63.6,1018.0,307.9,1.1,1.7,316.3,0.00,7.4,14.0,"16:26:56",1
"18/11/30","16:40",0.0,14.1,65.4,1017.8,326.9,0.7,1.4,312.1,0.00,7.8,14.1,"16:39:36",1
"18/11/30","16:50",0.0,13.7,69.5,1017.8,319.1,1.6,2.1,314.9,0.00,8.3,14.3,"16:41:12",1
"18/11/30","17:00",0.0,13.5,71.2,1018.0,295.7,1.0,1.3,319.1,0.00,8.4,14.2,"16:56:40",1
"18/11/30","17:10",0.0,13.3,72.2,1017.8,314.8,1.6,3.1,332.1,0.00,8.4,14.0,"17:06:00",1
"18/11/30","17:20",0.0,13.1,73.0,1018.0,325.9,1.5,2.6,333.8,0.00,8.4,14.1,"17:11:44",1
"18/11/30","17:30",0.0,12.8,74.4,1018.0,281.5,1.0,1.2,311.4,0.00,8.4,13.7,"17:20:24",1
"18/11/30","17:40",0.0,12.6,74.8,1018.0,284.9,1.0,1.4,260.4,0.00,8.3,13.8,"17:32:08",1
"18/11/30","17:50",0.0,12.3,75.1,1018.2,285.8,1.2,1.6,279.6,0.00,8.1,13.6,"17:47:44",1
"18/11/30","18:00",0.0,11.9,75.9,1018.5,299.4,1.1,1.6,320.9,0.00,7.8,13.6,"17:58:54",1
"18/11/30","18:10",0.0,11.3,77.0,1018.5,305.6,1.1,1.7,319.1,0.00,7.5,13.4,"18:03:06",1
"18/11/30","18:20",0.0,10.7,78.8,1018.5,306.1,1.3,2.0,322.2,0.00,7.2,13.5,"18:13:44",1
"18/11/30","18:30",0.0,10.5,81.9,1018.0,304.0,1.5,1.9,319.0,0.00,7.6,13.2,"18:25:52",1
"18/11/30","18:40",0.0,10.2,83.3,1018.2,292.6,1.5,1.8,311.4,0.00,7.5,13.2,"18:31:06",1
"18/11/30","18:50",0.0,10.1,84.2,1018.2,295.0,1.6,2.2,311.6,0.00,7.6,13.1,"18:46:26",1
"18/11/30","19:00",0.0,9.8,84.2,1018.5,320.7,1.8,2.5,332.7,0.00,7.3,12.8,"18:59:36",1
"18/11/30","19:10",0.0,9.1,84.8,1018.5,306.1,1.7,2.6,321.2,0.00,6.7,12.9,"19:03:28",1
"18/11/30","19:20",0.0,8.9,87.7,1018.0,295.8,1.6,2.0,316.8,0.00,7.0,12.6,"19:18:48",1
"18/11/30","19:30",0.0,8.7,88.2,1018.5,285.4,1.5,1.8,277.9,0.00,6.9,12.5,"19:26:40",1
"18/11/30","19:40",0.0,8.8,89.4,1018.5,291.3,1.8,2.5,300.8,0.00,7.2,12.4,"19:39:12",1
"18/11/30","19:50",0.0,8.7,89.4,1018.5,286.7,1.6,2.0,293.3,0.00,7.1,12.5,"19:40:08",1
"18/11/30","20:00",0.0,8.6,89.7,1018.2,281.0,1.6,1.8,287.5,0.00,7.0,12.4,"19:50:24",1
"18/11/30","20:10",0.0,8.5,90.1,1018.7,291.6,1.7,2.4,306.9,0.00,7.0,12.3,"20:09:12",1
"18/11/30","20:20",0.0,7.9,89.6,1018.2,312.6,2.1,3.1,311.4,0.00,6.3,12.1,"20:16:24",1
"18/11/30","20:30",0.0,7.5,91.2,1018.0,299.9,1.5,2.0,312.7,0.00,6.2,12.2,"20:28:32",1
"18/11/30","20:40",0.0,7.4,91.1,1018.2,310.2,2.0,2.6,318.9,0.00,6.1,12.0,"20:37:20",1
"18/11/30","20:50",0.0,6.9,91.8,1018.7,290.3,1.2,1.7,302.7,0.00,5.7,12.0,"20:40:08",1
"18/11/30","21:00",0.0,6.9,92.8,1018.7,300.4,1.3,2.5,315.0,0.00,5.9,11.7,"20:58:00",1
"18/11/30","21:10",0.0,6.8,93.1,1018.7,314.9,2.3,3.3,320.8,0.00,5.8,11.6,"21:00:56",1
"18/11/30","21:20",0.0,7.0,94.7,1018.5,291.9,1.6,2.2,304.9,0.00,6.2,11.5,"21:19:52",1
"18/11/30","21:30",0.0,7.4,94.1,1018.5,280.8,1.7,2.2,273.9,0.00,6.6,11.4,"21:25:20",1
"18/11/30","21:40",0.0,7.3,92.9,1018.5,287.7,1.8,2.8,320.8,0.00,6.3,11.5,"21:39:36",1
"18/11/30","21:50",0.0,6.6,94.5,1018.5,323.5,2.7,3.4,320.0,0.00,5.8,11.5,"21:44:00",1
"18/11/30","22:00",0.0,6.6,93.8,1018.7,307.4,1.8,2.6,326.9,0.00,5.7,11.3,"21:53:36",1
"18/11/30","22:10",0.0,6.5,95.3,1018.5,287.6,1.6,2.0,307.4,0.00,5.8,11.2,"22:04:32",1
"18/11/30","22:20",0.0,6.8,95.6,1018.2,302.0,1.6,2.0,307.5,0.00,6.2,11.2,"22:14:32",1
"18/11/30","22:30",0.0,6.6,94.8,1018.2,287.3,1.3,2.0,312.3,0.00,5.9,11.2,"22:21:28",1
"18/11/30","22:40",0.0,6.4,95.4,1018.2,294.6,1.2,2.5,317.9,0.00,5.8,11.0,"22:39:20",1
"18/11/30","22:50",0.0,6.1,95.6,1018.5,324.6,2.6,3.4,323.9,0.00,5.5,11.1,"22:48:08",1
"18/11/30","23:00",0.0,6.0,95.9,1018.2,297.9,1.7,2.8,311.5,0.00,5.4,10.9,"22:51:28",1
"18/11/30","23:10",0.0,6.1,97.0,1018.2,289.1,1.5,2.1,304.9,0.00,5.7,11.0,"23:07:52",1
"18/11/30","23:20",0.0,6.1,96.5,1018.0,306.7,1.7,2.5,314.0,0.00,5.6,10.7,"23:19:28",1
"18/11/30","23:30",0.0,5.9,95.5,1018.2,305.8,1.5,2.0,315.8,0.00,5.3,10.7,"23:24:24",1
"18/11/30","23:40",0.0,5.5,96.8,1018.0,282.4,1.3,1.7,302.7,0.00,5.1,10.8,"23:30:02",1
"18/11/30","23:50",0.0,5.7,97.1,1018.0,305.5,1.7,2.2,315.6,0.00,5.3,10.7,"23:49:04",1
"18/11/30","24:00",0.0,5.6,96.6,1017.8,311.0,2.0,2.5,314.0,0.00,5.1,10.7,"23:55:04",1
